Williston, ND

11:22 AM CDT on May 26, 2018 (GMT -0500)
Sloulin International

Weather History for KISN - September, 2011

Change the Weather History Date:

Friday, September 9, 2011

  Actual Average Record
Temperature  
Mean Temperature 69 °F 60 °F  
Max Temperature 89 °F 75 °F 100 °F (1994)
Min Temperature 49 °F 45 °F 26 °F (1898)
Degree Days  
Heating Degree Days 0 6  
Month to date heating degree days 22 46  
Since 1 July heating degree days 31 117  
Cooling Degree Days 4 1  
Month to date cooling degree days 11 16  
Year to date cooling degree days 427 445  
Growing Degree Days 20 (Base 50)    
Moisture  
Dew Point 52 °F    
Average Humidity 53    
Maximum Humidity 89    
Minimum Humidity 17    
Precipitation  
Precipitation 0.00 in 0.04 in 1.28 in (1950)
Month to date precipitation 0.01 0.35  
Year to date precipitation 16.96 11.47  
Snow  
Snow 0.00 in - - ()
Month to date snowfall 0.0  
Snow Depth 0.00 in    
Sea Level Pressure  
Sea Level Pressure 30.06 in    
Wind  
Wind Speed 2 mph (NNW)    
Max Wind Speed 8 mph    
Max Gust Speed 12 mph    
Visibility 8 miles    
Events Rain , Thunderstorm    
T = Trace of Precipitation, MM = Missing Value Source: NWS Daily Summary

Daily Weather History Graph

Daily Weather History Graph

Search for Another Location

Airport or City:

Astronomy

Sep. 09, 2011 Rise Set
Actual Time 7:23 AM CDT 8:19 PM CDT
Civil Twilight 6:51 AM CDT 8:51 PM CDT
Nautical Twilight 6:13 AM CDT 9:29 PM CDT
Astronomical Twilight 5:32 AM CDT 10:09 PM CDT
Moon 6:53 PM CDT (9/9) 4:35 AM CDT (9/9)
Length of Visible Light 14h 00m
Length of Day
12h 56m
Waxing Gibbous, 93% of the Moon is Illuminated
Sep 9
Waxing Gibbous
Sep 12
Full
Sep 20
Last Quarter
Sep 27
New
Oct 3
First Quarter

Hourly Weather History & Observations

Time (CDT) Temp. Dew Point Humidity Pressure Visibility Wind Dir Wind Speed Gust Speed Precip Events Conditions
12:04 AM - - N/A% 30.17 in 4.0 mi North 19.6 mph 28.8 mph 0.00 in   Unknown
12:09 AM 57.2 °F 55.4 °F 94% 29.75 in 8.0 mi NNE 9.2 mph - N/A Rain Rain
12:41 AM - - N/A% 30.24 in 10.0 mi NNW 6.9 mph - N/A   Overcast
12:45 AM 77.0 °F 64.4 °F 65% 29.76 in 10.0 mi ENE 11.5 mph 36.8 mph N/A   Mostly Cloudy
12:52 AM - - N/A% 30.32 in 5.0 mi North 18.4 mph 27.6 mph 0.01 in   Unknown
1:14 AM 69.8 °F 62.6 °F 78% 29.72 in 2.0 mi NW 16.1 mph 29.9 mph 0.01 in Rain , Thunderstorm Heavy Thunderstorms and Rain
1:18 AM 71.6 °F 59.0 °F 64% 29.77 in 10.0 mi North 17.3 mph 31.1 mph 0.00 in Rain , Thunderstorm Light Rain
1:23 AM - - N/A% 30.24 in 10.0 mi WNW 8.1 mph - N/A   Overcast
1:26 AM 66.2 °F 60.8 °F 83% 29.73 in 10.0 mi WSW 8.1 mph - 0.11 in Rain , Thunderstorm Light Thunderstorms and Rain
1:33 AM 66.2 °F 60.8 °F 83% 29.74 in 10.0 mi WSW 6.9 mph - 0.11 in Thunderstorm Scattered Clouds
1:52 AM - - N/A% 30.18 in 4.0 mi North 20.7 mph 28.8 mph 0.01 in   Unknown
1:58 AM 66.2 °F 60.8 °F 83% 29.75 in 2.5 mi ENE 16.1 mph 21.9 mph 0.15 in Rain Heavy Small Hail
2:03 AM 68.0 °F 60.8 °F 78% 29.75 in 2.5 mi ENE 12.7 mph 21.9 mph 0.19 in Rain Light Rain
2:08 AM 68.0 °F 60.8 °F 78% 29.75 in 8.0 mi ENE 9.2 mph 18.4 mph 0.21 in Rain Rain
2:19 AM 57.2 °F 55.4 °F 94% 29.77 in 10.0 mi West 5.8 mph - N/A   Overcast
2:52 AM 57.2 °F 55.4 °F 94% 29.75 in 10.0 mi WSW 8.1 mph - N/A   Mostly Cloudy
3:11 AM 69.8 °F 44.6 °F 40% 30.16 in 9.0 mi NW 17.3 mph 38.0 mph N/A Thunderstorm Overcast
3:26 AM 57.2 °F 53.6 °F 88% 30.19 in 7.0 mi NW 16.1 mph - 0.00 in Rain Rain
3:52 AM - - N/A% 30.33 in 3.0 mi North 21.9 mph - 0.00 in   Unknown
3:57 AM 57.2 °F 53.6 °F 88% 30.14 in 8.0 mi North 10.4 mph - 0.01 in Rain Rain
3:58 AM 53.6 °F 44.6 °F 72% 30.00 in 10.0 mi West 20.7 mph 26.5 mph N/A   Overcast
3:59 AM - - N/A% 30.33 in 2.5 mi North 23.0 mph 29.9 mph 0.00 in   Unknown
4:04 AM - - N/A% 30.19 in 3.0 mi North 19.6 mph 29.9 mph 0.00 in   Unknown
4:30 AM - - N/A% 30.19 in 2.5 mi North 23.0 mph 31.1 mph 0.00 in   Unknown
4:52 AM - - N/A% 30.32 in 2.0 mi North 24.2 mph 32.2 mph 0.00 in   Unknown
5:02 AM 60.8 °F 57.2 °F 88% 29.79 in 10.0 mi West 8.1 mph - N/A   Mostly Cloudy
5:05 AM 53.6 °F 46.4 °F 77% 30.03 in 10.0 mi WNW 21.9 mph 31.1 mph N/A   Overcast
5:14 AM 53.6 °F 46.4 °F 77% 30.03 in 10.0 mi WNW 18.4 mph 31.1 mph N/A   Mostly Cloudy
5:52 AM 51.1 °F 48.0 °F 89% 30.17 in 10.0 mi Calm Calm - N/A   Clear
6:52 AM 51.1 °F 48.0 °F 89% 30.18 in 10.0 mi Calm Calm - N/A   Clear
7:52 AM 52.0 °F 48.0 °F 86% 30.19 in 10.0 mi Calm Calm - N/A   Clear
8:52 AM 62.6 °F 51.8 °F 68% 30.21 in 10.0 mi Calm Calm - N/A   Clear
9:52 AM 66.0 °F 53.1 °F 63% 30.19 in 10.0 mi Calm Calm - N/A   Clear
10:52 AM 71.1 °F 52.0 °F 51% 30.19 in 10.0 mi Calm Calm - N/A   Clear
11:52 AM 75.0 °F 48.9 °F 40% 30.19 in 10.0 mi Calm Calm - N/A   Clear
12:52 PM 80.1 °F 46.9 °F 31% 30.17 in 10.0 mi South 5.8 mph - N/A   Clear
1:52 PM 82.9 °F 48.0 °F 29% 30.15 in 10.0 mi SSE 5.8 mph - N/A   Clear
2:52 PM 84.9 °F 46.0 °F 26% 30.13 in 10.0 mi South 5.8 mph - N/A   Clear
3:52 PM 88.0 °F 44.1 °F 22% 30.11 in 10.0 mi East 3.5 mph - N/A   Clear
4:52 PM 89.1 °F 39.9 °F 18% 30.10 in 10.0 mi NNE 4.6 mph - N/A   Clear
5:52 PM 87.1 °F 39.9 °F 19% 30.09 in 10.0 mi ENE 3.5 mph - N/A   Clear
6:52 PM 86.0 °F 43.0 °F 22% 30.09 in 10.0 mi Calm Calm - N/A   Clear
7:52 PM 80.1 °F 46.9 °F 31% 30.09 in 10.0 mi ESE 6.9 mph - N/A   Clear
8:52 PM 72.0 °F 51.1 °F 48% 30.09 in 10.0 mi SE 5.8 mph - N/A   Clear
9:52 PM 68.0 °F 51.1 °F 55% 30.11 in 10.0 mi Calm Calm - N/A   Clear
10:52 PM 66.0 °F 51.1 °F 59% 30.10 in 10.0 mi South 3.5 mph - N/A   Clear
11:52 PM 60.1 °F 51.1 °F 72% 30.11 in 10.0 mi Calm Calm - N/A   Clear